Regional Weather Roundup
Issued by NWS Jackson, KY

Home | Current Version | Previous Version | Text Only | Print | Product List | Glossary Off
Versions: 1 2 3 4 5 6 7 8 9 10 11 12 13 14 15 16 17 18 19 20 21 22 23 24 25 26 27

000
ASUS43 KJKL 212110
RWRJKL

EAST KENTUCKY HOURLY WEATHER ROUNDUP
NATIONAL WEATHER SERVICE JACKSON KY
500 PM EDT SAT OCT 21 2017

NOTE: "FAIR" INDICATES FEW OR NO CLOUDS BELOW 12,000 FEET WITH
NO SIGNIFICANT WEATHER AND/OR OBSTRUCTIONS TO VISIBILITY.

* THESE REPORTS ARE NOT UNDER NWS QUALITY CONTROL AND MAY NOT
  REPORT WEATHER SUCH AS PRECIPITATION AND FOG.

KYZ079-080-083-085-087-088-110-112-115-119-120-212200
...EASTERN KENTUCKY...

CITY           SKY/WX    TMP DP  RH WIND       PRES   REMARKS
JACKSON        SUNNY     73  51  46 CALM      30.27S
LONDON         MOSUNNY   75  44  33 S7        30.25S
SOMERSET*      MOSUNNY   72  45  37 S5        30.25S
MONTICELLO*    MOSUNNY   75  49  39 E7        30.24F
WILLIAMSBURG*  PTCLDY    73  48  40 SE5       30.25S
MIDDLESBORO*   SUNNY     76  51  41 CALM      30.26S
HARLAN APT*    PTCLDY    77  39  25 CALM      30.28R
PIKE CO APT*     N/A     73  46  37 CALM      30.28R
BIG SANDY APT* CLEAR     76  48  36 CALM      30.27S
MOREHEAD APT*  PTCLDY    75  46  35 CALM      30.26S
$$

KYZ035-036-041-042-044-050-067-078-099-212200
...CENTRAL KENTUCKY...

CITY           SKY/WX    TMP DP  RH WIND       PRES   REMARKS
MT STERLING*   MOSUNNY   75  46  35 S7        30.25S
FLEMING/MASON* MOSUNNY   74  50  42 S5        30.24S
DANVILLE*      MOSUNNY   75  41  29 S7        30.23F
LEXINGTON      MOSUNNY   75  45  34 S10       30.23S
FRANKFORT      MOSUNNY   74  44  34 S5        30.20F
LOUISVILLE     PTSUNNY   76  45  33 S9        30.18F
LEBANON*         N/A     73  45  35 CALM      30.21S
GLASGOW*       CLOUDY    75  47  37 CALM      30.19F
BOWLING GREEN  SUNNY     75  56  51 SE6       30.18F
$$

KYZ091>093-OHZ055-061-077-WVZ005-015-034-035-042-212200
...SOUTHERN OHIO/WEST VIRGINIA...

CITY           SKY/WX    TMP DP  RH WIND       PRES   REMARKS
COVINGTON      CLOUDY    70  53  54 S6        30.21F
COLUMBUS       CLOUDY    73  53  49 SE8       30.21F
DAYTON         PTSUNNY   71  48  43 S12       30.22S
WILMINGTON     PTSUNNY   72  51  47 S10       30.22S HAZE
HUNTINGTON     MOSUNNY   76  51  41 E5        30.24S
CHARLESTON     CLOUDY    77  49  37 S3        30.26S
PINEVILLE*     MOSUNNY   71  51  48 MISG      30.34R
BECKLEY        CLOUDY    74  38  27 SW3       30.32S
BLUEFIELD      MOSUNNY   70  42  36 VRB5      30.34R
LOGAN CO APT*    N/A     75  45  33 CALM      30.28S
$$

VAZ002-007-008-TNZ017-027-036-066-071-212200
...SOUTHWEST VIRGINIA/EAST TENNESSEE...

CITY           SKY/WX    TMP DP  RH WIND       PRES   REMARKS
WISE*          MOSUNNY   72  43  35 CALM      30.34S
JONESVILLE*      N/A     77  45  31 CALM      30.29S
ABINGDON*      MOSUNNY   76  41  28 CALM      30.30S
BRISTOL        CLOUDY    79  45  29 NE3       30.27S
MORRISTOWN*    CLEAR     75  46  35 N6        30.26R
SEVIERVILLE*   CLEAR     75  50  41 CALM      30.25R
KNOXVILLE      PTSUNNY   74  55  51 E3        30.24S
LAFOLLETTE*    CLEAR     75  48  38 S3        30.29S
OAK RIDGE      SUNNY     74  53  48 CALM      30.26
CROSSVILLE     SUNNY     71  46  40 S8        30.27S
NASHVILLE      CLOUDY    78  57  48 S8        30.17F
$$

...KEY TO REMARKS...
VSB - VISIBILITY IN MILES
WCI - WIND CHILL INDEX
HX  - HEAT INDEX

$$




USA.gov is the U.S. government's official web portal to all federal, state and local government web resources and services.